Weather History for Rickenbacker, OH

Change the Weather History Date:

Monday, April 8, 2013

  Actual Average Record
Temperature  
Mean Temperature 62 °F -  
Max Temperature 75 °F 62 °F 84 °F (2001)
Min Temperature 49 °F 41 °F 28 °F (2007)
Degree Days  
Heating Degree Days 3    
Growing Degree Days 12 (Base 50)    
Moisture  
Dew Point 48 °F    
Average Humidity 60    
Maximum Humidity 87    
Minimum Humidity 33    
Precipitation  
Precipitation 0.00 in - - ()
Sea Level Pressure  
Sea Level Pressure 29.95 in    
Wind  
Wind Speed 8 mph (SSW)    
Max Wind Speed 25 mph    
Max Gust Speed 36 mph    
Visibility 10 miles    
Events Rain    
Averages and records for this station are not official NWS values.
T = Trace of Precipitation, MM = Missing Value Source: NWS Daily Summary

Daily Weather History Graph

Daily Weather History Graph

Search for Another Location

Airport:

Trip Planner

Search our weather history database for the weather conditions in past years. The results will help you decide how hot, cold, wet, or windy it might be!

Date:

Astronomy

Apr. 08, 2013 Rise Set
Actual Time 7:04 AM EDT 8:03 PM EDT
Civil Twilight 6:36 AM EDT 8:30 PM EDT
Nautical Twilight 6:04 AM EDT 9:03 PM EDT
Astronomical Twilight 5:30 AM EDT 9:37 PM EDT
Moon 5:53 AM EDT (4/8) 6:36 PM EDT (4/8)
Length of Visible Light 13h 53m
Length of Day
12h 58m
Waning Crescent, 3% of the Moon is Illuminated
Apr 8
Waning Crescent
Apr 10
New
Apr 18
First Quarter
Apr 25
Full
May 2
Last Quarter

Hourly Weather History & Observations

Time (EDT) Temp. Dew Point Humidity Pressure Visibility Wind Dir Wind Speed Gust Speed Precip Events Conditions
12:15 AM 59.4 °F 48.2 °F 67% 29.99 in 10.0 mi Calm Calm - N/A   Mostly Cloudy
12:35 AM 58.5 °F 48.4 °F 69% 29.98 in 10.0 mi SE 3.5 mph - N/A   Mostly Cloudy
12:55 AM 57.6 °F 48.4 °F 71% 29.99 in 10.0 mi South 4.6 mph - N/A   Mostly Cloudy
1:15 AM 56.8 °F 48.4 °F 73% 30.00 in 10.0 mi South 3.5 mph - N/A   Overcast
1:35 AM 56.7 °F 48.6 °F 74% 30.00 in 10.0 mi SSW 3.5 mph - N/A   Overcast
1:55 AM 56.7 °F 48.9 °F 75% 30.00 in 10.0 mi Calm Calm - N/A   Light Drizzle
2:15 AM 56.5 °F 49.6 °F 78% 30.00 in 10.0 mi South 5.8 mph - N/A Rain Light Rain
2:35 AM 55.6 °F 49.6 °F 80% 29.99 in 10.0 mi Calm Calm - N/A Rain Light Rain
2:55 AM 56.1 °F 50.2 °F 80% 29.98 in 10.0 mi Calm Calm - N/A   Overcast
3:15 AM 55.6 °F 50.2 °F 82% 29.98 in 10.0 mi Calm Calm - N/A   Overcast
3:35 AM 55.2 °F 50.2 °F 83% 29.98 in 10.0 mi SSE 8.1 mph - N/A   Overcast
3:55 AM 54.3 °F 49.5 °F 84% 29.97 in 10.0 mi SSE 5.8 mph - N/A   Overcast
4:15 AM 54.3 °F 49.3 °F 83% 29.97 in 10.0 mi SE 4.6 mph - N/A   Mostly Cloudy
4:35 AM 53.6 °F 48.9 °F 84% 29.98 in 10.0 mi SE 3.5 mph - N/A   Overcast
4:55 AM 54.0 °F 49.1 °F 84% 29.98 in 10.0 mi Calm Calm - N/A   Mostly Cloudy
5:15 AM 52.7 °F 48.2 °F 85% 29.97 in 7.0 mi Calm Calm - N/A   Clear
5:35 AM 50.5 °F 46.8 °F 87% 29.97 in 10.0 mi SE 5.8 mph - N/A   Clear
5:55 AM 49.8 °F 46.0 °F 87% 29.97 in 10.0 mi SE 4.6 mph - N/A   Clear
6:15 AM 49.8 °F 45.9 °F 86% 29.97 in 10.0 mi East 3.5 mph - N/A   Scattered Clouds
6:35 AM 50.2 °F 46.0 °F 86% 29.97 in 10.0 mi ESE 6.9 mph - N/A   Scattered Clouds
6:55 AM 50.9 °F 46.6 °F 85% 29.97 in 10.0 mi ESE 3.5 mph - N/A   Scattered Clouds
7:15 AM 50.4 °F 46.0 °F 85% 29.97 in 10.0 mi Calm Calm - N/A   Scattered Clouds
7:35 AM 50.4 °F 46.2 °F 86% 29.98 in 10.0 mi Calm Calm - N/A   Clear
7:55 AM 50.0 °F 45.7 °F 85% 29.98 in 10.0 mi ESE 3.5 mph - N/A   Clear
8:15 AM 51.4 °F 47.1 °F 85% 29.98 in 10.0 mi SE 3.5 mph - N/A   Clear
8:35 AM 54.5 °F 49.1 °F 82% 29.98 in 10.0 mi SE 4.6 mph - N/A   Clear
8:55 AM 57.4 °F 50.2 °F 77% 29.97 in 10.0 mi SSE 4.6 mph - N/A   Scattered Clouds
9:15 AM 59.0 °F 50.5 °F 73% 29.97 in 10.0 mi South 6.9 mph - N/A   Scattered Clouds
9:35 AM 61.3 °F 50.0 °F 66% 29.97 in 10.0 mi South 11.5 mph - N/A   Scattered Clouds
9:55 AM 63.7 °F 48.6 °F 58% 29.96 in 10.0 mi South 12.7 mph - N/A   Mostly Cloudy
10:15 AM 63.0 °F 46.9 °F 56% 29.97 in 10.0 mi South 11.5 mph - N/A   Overcast
10:35 AM 63.3 °F 47.1 °F 56% 29.97 in 10.0 mi South 12.7 mph - N/A   Overcast
10:55 AM 64.4 °F 46.9 °F 53% 29.96 in 10.0 mi South 11.5 mph - N/A   Overcast
11:15 AM 67.3 °F 46.2 °F 47% 29.95 in 10.0 mi South 10.4 mph - N/A   Overcast
11:35 AM 70.2 °F 45.1 °F 41% 29.94 in 10.0 mi South 17.3 mph 21.9 mph N/A   Overcast
11:55 AM 70.5 °F 45.0 °F 40% 29.95 in 10.0 mi South 16.1 mph 21.9 mph N/A   Overcast
12:15 PM 70.7 °F 45.0 °F 40% 29.94 in 10.0 mi SSW 18.4 mph 21.9 mph N/A   Overcast
12:35 PM 71.4 °F 45.3 °F 39% 29.94 in 10.0 mi SSW 18.4 mph 26.5 mph N/A   Mostly Cloudy
12:55 PM 73.6 °F 45.5 °F 37% 29.93 in 10.0 mi SSW 25.3 mph 29.9 mph N/A   Scattered Clouds
1:15 PM 73.9 °F 46.2 °F 37% 29.91 in 10.0 mi SSW 21.9 mph 28.8 mph N/A   Scattered Clouds
1:35 PM 75.0 °F 45.5 °F 35% 29.91 in 10.0 mi SSW 24.2 mph 29.9 mph N/A   Scattered Clouds
1:55 PM 75.2 °F 44.1 °F 33% 29.91 in 10.0 mi SSW 25.3 mph 35.7 mph N/A   Mostly Cloudy
2:15 PM 73.9 °F 44.1 °F 34% 29.90 in 10.0 mi SSW 21.9 mph 28.8 mph N/A   Overcast
2:35 PM 72.9 °F 44.4 °F 36% 29.90 in 10.0 mi SW 19.6 mph 29.9 mph N/A   Overcast
2:55 PM 72.7 °F 45.1 °F 37% 29.90 in 10.0 mi SW 19.6 mph 24.2 mph N/A   Overcast
3:15 PM 72.1 °F 45.9 °F 39% 29.90 in 10.0 mi SW 13.8 mph 25.3 mph N/A   Overcast
3:35 PM 71.8 °F 46.0 °F 40% 29.90 in 10.0 mi SSW 18.4 mph 24.2 mph N/A   Overcast
3:55 PM 72.3 °F 46.2 °F 39% 29.89 in 10.0 mi SSW 15.0 mph - N/A   Overcast
4:15 PM 72.5 °F 46.8 °F 40% 29.89 in 10.0 mi SW 13.8 mph 23.0 mph N/A   Overcast
4:35 PM 72.9 °F 46.8 °F 39% 29.88 in 10.0 mi SW 18.4 mph 24.2 mph N/A   Overcast
4:55 PM 74.1 °F 46.2 °F 37% 29.88 in 10.0 mi SSW 23.0 mph 28.8 mph N/A   Overcast
5:15 PM 73.8 °F 46.2 °F 37% 29.89 in 10.0 mi SSW 20.7 mph 26.5 mph N/A   Overcast
5:35 PM 73.6 °F 46.6 °F 38% 29.89 in 10.0 mi SSW 19.6 mph 24.2 mph N/A   Overcast
5:55 PM 73.6 °F 46.9 °F 39% 29.90 in 10.0 mi SSW 17.3 mph 27.6 mph N/A   Mostly Cloudy
6:15 PM 74.1 °F 47.3 °F 38% 29.90 in 10.0 mi SSW 20.7 mph 25.3 mph N/A   Scattered Clouds
6:35 PM 73.8 °F 47.3 °F 39% 29.90 in 10.0 mi SSW 20.7 mph 29.9 mph N/A   Mostly Cloudy
6:55 PM 73.2 °F 47.7 °F 40% 29.91 in 10.0 mi SSW 16.1 mph 23.0 mph N/A   Scattered Clouds
7:15 PM 72.1 °F 47.8 °F 42% 29.91 in 10.0 mi SSW 15.0 mph 23.0 mph N/A   Scattered Clouds
7:35 PM 71.6 °F 48.2 °F 43% 29.91 in 10.0 mi SSW 19.6 mph - N/A   Clear
7:55 PM 70.5 °F 48.7 °F 46% 29.92 in 10.0 mi SW 13.8 mph 21.9 mph N/A   Clear
8:15 PM 69.4 °F 49.3 °F 49% 29.93 in 10.0 mi SW 10.4 mph - N/A   Mostly Cloudy
8:35 PM 68.9 °F 49.5 °F 50% 29.93 in 10.0 mi SSW 15.0 mph - N/A   Mostly Cloudy
8:55 PM 68.5 °F 49.8 °F 51% 29.93 in 10.0 mi SSW 16.1 mph 23.0 mph N/A   Scattered Clouds
9:15 PM 67.5 °F 50.0 °F 53% 29.95 in 10.0 mi SW 12.7 mph - N/A   Clear
9:35 PM 66.0 °F 50.2 °F 57% 29.95 in 10.0 mi SSW 11.5 mph - N/A   Clear
9:55 PM 65.7 °F 50.4 °F 58% 29.96 in 10.0 mi SSW 9.2 mph - N/A   Clear
10:15 PM 64.8 °F 50.5 °F 60% 29.97 in 10.0 mi SSW 9.2 mph - N/A   Clear
10:35 PM 63.5 °F 50.5 °F 63% 29.97 in 10.0 mi SW 6.9 mph - N/A   Clear
10:55 PM 62.2 °F 50.5 °F 65% 29.98 in 10.0 mi SW 8.1 mph - N/A   Clear
11:15 PM 61.7 °F 50.5 °F 67% 29.98 in 10.0 mi WSW 6.9 mph - N/A   Clear
11:35 PM 60.6 °F 50.2 °F 68% 29.99 in 10.0 mi SW 4.6 mph - N/A   Clear
11:55 PM 60.4 °F 50.2 °F 69% 29.99 in 10.0 mi SSW 5.8 mph - N/A   Clear